Change the Weather History Date:

Friday, January 17, 2014

  Actual Average Record
Temperature  
Mean Temperature 16 °F 27 °F  
Max Temperature 23 °F 35 °F 49 °F (2015)
Min Temperature 9 °F 19 °F 34 °F (2015)
Degree Days  
Heating Degree Days 49 38  
Month to date heating degree days 651 641  
Since 1 July heating degree days 2926 2780  
Cooling Degree Days 0 0  
Month to date cooling degree days 0 0  
Year to date cooling degree days 0 0  
Moisture  
Dew Point 6 °F    
Average Humidity 70    
Maximum Humidity 81    
Minimum Humidity 59    
Precipitation  
Precipitation T in 0.07 in 0.00 in (2015)
Month to date precipitation 0.71 1.12  
Year to date precipitation 0.71 1.12  
Sea Level Pressure  
Sea Level Pressure 29.97 in    
Wind  
Wind Speed 13 mph (WNW)    
Max Wind Speed 29 mph    
Max Gust Speed 39 mph    
Visibility 8 miles    
Events Snow    
T = Trace of Precipitation, MM = Missing Value Source: NWS Daily Summary

Daily Weather History Graph

Daily Weather History Graph

Search for Another Location

Airport or City:

Trip Planner

Search our weather history database for the weather conditions in past years. The results will help you decide how hot, cold, wet, or windy it might be!

Date:

Astronomy

Jan. 17, 2014 Rise Set
Actual Time 7:14 AM CST 4:57 PM CST
Civil Twilight 6:44 AM CST 5:26 PM CST
Nautical Twilight 6:11 AM CST 6:00 PM CST
Astronomical Twilight 5:39 AM CST 6:32 PM CST
Moon 6:43 PM CST (1/17) 7:42 AM CST (1/17)
Length of Visible Light 10h 42m
Length of Day
9h 43m
Full, 98% of the Moon is Illuminated
Jan 17
Full
Jan 23
Last Quarter
Jan 30
New
Feb 6
First Quarter
Feb 14
Full

Hourly Weather History & Observations

Time (CST) Temp. Windchill Dew Point Humidity Pressure Visibility Wind Dir Wind Speed Gust Speed Precip Events Conditions
12:25 AM 19.4 °F 2.8 °F 12.2 °F 74% 29.78 in 10.0 mi West 21.9 mph 34.5 mph 0.00 in   Overcast
12:54 AM 19.0 °F 3.2 °F 10.9 °F 71% 29.82 in 8.0 mi WNW 19.6 mph 29.9 mph 0.00 in Snow Light Snow
1:54 AM 16.0 °F -1.3 °F 7.0 °F 68% 29.85 in 10.0 mi WNW 20.7 mph 31.1 mph 0.00 in   Overcast
2:38 AM 15.8 °F 0.3 °F 6.8 °F 68% 29.85 in 5.0 mi NW 16.1 mph - 0.00 in Snow Light Snow
2:54 AM 14.0 °F -3.4 °F 5.0 °F 67% 29.89 in 8.0 mi NW 19.6 mph 26.5 mph 0.00 in Snow Light Snow
3:07 AM 14.0 °F -3.9 °F 3.2 °F 62% 29.86 in 10.0 mi NW 20.7 mph 25.3 mph 0.00 in   Overcast
3:39 AM 12.2 °F -4.3 °F 3.2 °F 67% 29.86 in 10.0 mi WNW 16.1 mph 23.0 mph 0.00 in Snow Light Snow
3:54 AM 12.9 °F -3.9 °F 3.0 °F 65% 29.89 in 10.0 mi NW 17.3 mph 21.9 mph 0.00 in   Mostly Cloudy
4:03 AM 12.2 °F -4.3 °F 1.4 °F 62% 29.86 in 10.0 mi WNW 16.1 mph 23.0 mph N/A   Scattered Clouds
4:54 AM 12.0 °F -4.5 °F 3.0 °F 67% 29.91 in 10.0 mi WNW 16.1 mph 21.9 mph N/A   Scattered Clouds
5:04 AM 12.2 °F -4.8 °F 3.2 °F 67% 29.88 in 10.0 mi West 17.3 mph 25.3 mph N/A   Mostly Cloudy
5:18 AM 12.2 °F -4.3 °F 6.8 °F 79% 29.88 in 1.8 mi WNW 16.1 mph 24.2 mph 0.00 in Snow Light Snow
5:33 AM 10.4 °F -6.6 °F 5.0 °F 79% 29.89 in 3.0 mi WNW 16.1 mph 21.9 mph 0.00 in Snow Light Snow
5:54 AM 10.0 °F -6.5 °F 3.0 °F 73% 29.93 in 9.0 mi WNW 15.0 mph 24.2 mph 0.00 in   Mostly Cloudy
6:54 AM 9.0 °F -5.9 °F 1.0 °F 70% 29.95 in 10.0 mi WNW 11.5 mph 19.6 mph N/A   Clear
7:54 AM 10.0 °F -5.9 °F 1.0 °F 67% 29.97 in 10.0 mi WNW 13.8 mph 19.6 mph N/A   Partly Cloudy
8:23 AM 10.4 °F -7.2 °F 1.4 °F 67% 29.95 in 10.0 mi WNW 17.3 mph 21.9 mph N/A   Mostly Cloudy
8:54 AM 10.9 °F -3.4 °F 3.0 °F 70% 29.99 in 4.0 mi WNW 11.5 mph - 0.00 in Snow Light Snow
9:54 AM 12.0 °F -2.7 °F 1.9 °F 64% 30.01 in 10.0 mi WNW 12.7 mph - 0.00 in   Overcast
10:54 AM 12.9 °F -2.8 °F 1.9 °F 62% 30.01 in 10.0 mi WNW 15.0 mph - N/A   Overcast
11:54 AM 14.0 °F -1.4 °F 3.0 °F 62% 30.01 in 10.0 mi WNW 15.0 mph 23.0 mph N/A   Overcast
12:54 PM 15.1 °F -0.1 °F 3.9 °F 61% 30.01 in 9.0 mi West 15.0 mph 20.7 mph N/A   Overcast
1:54 PM 15.1 °F -0.6 °F 6.1 °F 68% 30.02 in 6.0 mi WNW 16.1 mph 21.9 mph 0.00 in Snow Light Snow
2:54 PM 15.1 °F 0.5 °F 5.0 °F 64% 30.04 in 8.0 mi West 13.8 mph - 0.00 in   Overcast
3:54 PM 16.0 °F 3.6 °F 5.0 °F 62% 30.06 in 10.0 mi West 10.4 mph - N/A   Overcast
4:54 PM 16.0 °F 2.3 °F 6.1 °F 65% 30.08 in 10.0 mi West 12.7 mph - N/A   Overcast
5:14 PM 15.8 °F 1.4 °F 6.8 °F 68% 30.05 in 9.0 mi West 13.8 mph - 0.00 in Snow Light Snow
5:54 PM 15.1 °F 1.8 °F 8.1 °F 74% 30.09 in 6.0 mi West 11.5 mph - 0.00 in Snow Light Snow
6:54 PM 16.0 °F 3.6 °F 9.0 °F 74% 30.10 in 6.0 mi West 10.4 mph - 0.00 in Snow Light Snow
7:13 PM 15.8 °F 5.1 °F 10.4 °F 79% 30.06 in 5.0 mi West 8.1 mph - 0.00 in Snow Light Snow
7:30 PM 15.8 °F 6.1 °F 10.4 °F 79% 30.06 in 8.0 mi West 6.9 mph - 0.00 in Snow Light Snow
7:54 PM 17.1 °F 7.6 °F 10.0 °F 74% 30.09 in 10.0 mi West 6.9 mph - 0.00 in   Overcast
8:54 PM 17.1 °F 5.0 °F 9.0 °F 71% 30.09 in 10.0 mi West 10.4 mph - N/A   Overcast
9:54 PM 17.1 °F 4.3 °F 8.1 °F 68% 30.09 in 10.0 mi WNW 11.5 mph 20.7 mph N/A   Overcast
10:54 PM 17.1 °F 6.6 °F 8.1 °F 68% 30.07 in 10.0 mi West 8.1 mph - N/A   Overcast
11:54 PM 16.0 °F 8.8 °F 7.0 °F 68% 30.06 in 10.0 mi WSW 4.6 mph - N/A   Clear